Time,TemperatureF,DewpointF,PressureIn,WindDirection,WindDirectionDegrees,WindSpeedMPH,WindSpeedGustMPH,Humidity,HourlyPrecipIn,Conditions,Clouds,dailyrainin,SoftwareType,DateUTC
2017-11-23 01:36:00,35.3,26.0,29.95,NW,325,6.0,9.0,70,0.00,,,0.00,weatherlink.com 1.10,2017-11-23 06:36:00,
2017-11-23 01:51:00,35.1,27.0,29.95,NW,317,3.0,9.0,71,0.00,,,0.00,weatherlink.com 1.10,2017-11-23 06:51:00,
2017-11-23 02:06:00,34.9,26.0,29.95,NW,317,8.0,12.0,70,0.00,,,0.00,weatherlink.com 1.10,2017-11-23 07:06:00,
2017-11-23 02:36:00,34.4,26.0,29.96,NW,319,8.0,11.0,71,0.00,,,0.00,weatherlink.com 1.10,2017-11-23 07:36:00,
2017-11-23 02:51:00,33.9,26.0,29.96,NW,309,2.0,7.0,73,0.00,,,0.00,weatherlink.com 1.10,2017-11-23 07:51:00,
2017-11-23 03:06:00,33.7,26.0,29.97,NW,312,3.0,11.0,73,0.00,,,0.00,weatherlink.com 1.10,2017-11-23 08:06:00,
2017-11-23 03:21:00,33.5,26.0,29.96,NNW,329,2.0,11.0,73,0.00,,,0.00,weatherlink.com 1.10,2017-11-23 08:21:00,
2017-11-23 03:36:00,33.3,25.0,29.97,NNW,342,10.0,10.0,72,0.00,,,0.00,weatherlink.com 1.10,2017-11-23 08:36:00,
2017-11-23 03:51:00,33.1,25.0,29.97,NNW,340,7.0,15.0,72,0.00,,,0.00,weatherlink.com 1.10,2017-11-23 08:51:00,
2017-11-23 04:06:00,32.9,25.0,29.98,NNW,331,7.0,8.0,72,0.00,,,0.00,weatherlink.com 1.10,2017-11-23 09:06:00,
2017-11-23 04:21:00,32.8,24.0,29.98,NW,321,7.0,14.0,71,0.00,,,0.00,weatherlink.com 1.10,2017-11-23 09:21:00,
2017-11-23 04:37:00,32.5,23.0,29.98,NW,311,8.0,11.0,69,0.00,,,0.00,weatherlink.com 1.10,2017-11-23 09:37:00,
2017-11-23 04:51:00,32.5,23.0,29.98,NW,322,9.0,20.0,68,0.00,,,0.00,weatherlink.com 1.10,2017-11-23 09:51:00,
2017-11-23 05:21:00,31.9,22.0,30.00,NNW,330,9.0,17.0,67,0.00,,,0.00,weatherlink.com 1.10,2017-11-23 10:21:00,
2017-11-23 05:36:00,31.8,21.0,30.02,NW,319,5.0,16.0,65,0.00,,,0.00,weatherlink.com 1.10,2017-11-23 10:36:00,
2017-11-23 05:51:00,31.6,21.0,30.02,NNW,338,9.0,18.0,65,0.00,,,0.00,weatherlink.com 1.10,2017-11-23 10:51:00,
2017-11-23 06:07:00,31.3,20.0,30.02,NW,325,8.0,13.0,64,0.00,,,0.00,weatherlink.com 1.10,2017-11-23 11:07:00,
2017-11-23 06:22:00,31.0,21.0,30.03,NW,313,8.0,12.0,66,0.00,,,0.00,weatherlink.com 1.10,2017-11-23 11:22:00,
2017-11-23 06:52:00,30.6,21.0,30.04,WNW,288,3.0,9.0,68,0.00,,,0.00,weatherlink.com 1.10,2017-11-23 11:52:00,
2017-11-23 07:07:00,30.7,22.0,30.03,NW,315,2.0,10.0,69,0.00,,,0.00,weatherlink.com 1.10,2017-11-23 12:07:00,
2017-11-23 07:52:00,31.1,21.0,30.02,NW,319,13.0,14.0,66,0.00,,,0.00,weatherlink.com 1.10,2017-11-23 12:52:00,
2017-11-23 08:22:00,31.5,20.0,30.02,NW,324,10.0,14.0,63,0.00,,,0.00,weatherlink.com 1.10,2017-11-23 13:22:00,
2017-11-23 08:52:00,32.2,19.0,30.02,NNW,340,12.0,15.0,59,0.00,,,0.00,weatherlink.com 1.10,2017-11-23 13:52:00,
2017-11-23 09:07:00,32.3,18.0,30.02,NNW,334,11.0,16.0,57,0.00,,,0.00,weatherlink.com 1.10,2017-11-23 14:07:00,
2017-11-23 09:22:00,32.6,19.0,30.02,NNW,329,12.0,22.0,57,0.00,,,0.00,weatherlink.com 1.10,2017-11-23 14:22:00,
2017-11-23 09:37:00,33.1,19.0,30.02,NW,325,9.0,16.0,56,0.00,,,0.00,weatherlink.com 1.10,2017-11-23 14:37:00,
2017-11-23 10:07:00,34.1,18.0,30.01,NW,322,10.0,17.0,53,0.00,,,0.00,weatherlink.com 1.10,2017-11-23 15:07:00,
2017-11-23 10:22:00,34.4,18.0,30.01,NNW,341,13.0,15.0,52,0.00,,,0.00,weatherlink.com 1.10,2017-11-23 15:22:00,
2017-11-23 10:37:00,34.5,18.0,30.01,NW,308,15.0,18.0,51,0.00,,,0.00,weatherlink.com 1.10,2017-11-23 15:37:00,
2017-11-23 11:07:00,35.3,18.0,30.00,NNW,343,17.0,17.0,50,0.00,,,0.00,weatherlink.com 1.10,2017-11-23 16:07:00,
2017-11-23 11:23:00,36.2,19.0,30.00,North,355,7.0,13.0,51,0.00,,,0.00,weatherlink.com 1.10,2017-11-23 16:23:00,
2017-11-23 11:37:00,36.4,19.0,30.00,NW,319,4.0,12.0,50,0.00,,,0.00,weatherlink.com 1.10,2017-11-23 16:37:00,
2017-11-23 11:52:00,36.9,19.0,30.00,NNW,344,10.0,13.0,48,0.00,,,0.00,weatherlink.com 1.10,2017-11-23 16:52:00,
2017-11-23 12:07:00,37.3,18.0,29.99,North,355,8.0,16.0,46,0.00,,,0.00,weatherlink.com 1.10,2017-11-23 17:07:00,
2017-11-23 12:22:00,37.4,18.0,29.98,NW,309,8.0,16.0,45,0.00,,,0.00,weatherlink.com 1.10,2017-11-23 17:22:00,
2017-11-23 12:37:00,38.2,19.0,29.98,WNW,292,5.0,14.0,47,0.00,,,0.00,weatherlink.com 1.10,2017-11-23 17:37:00,
2017-11-23 12:52:00,38.8,18.0,29.98,NW,325,11.0,12.0,44,0.00,,,0.00,weatherlink.com 1.10,2017-11-23 17:52:00,
2017-11-23 13:07:00,38.9,19.0,29.98,NNW,341,4.0,11.0,45,0.00,,,0.00,weatherlink.com 1.10,2017-11-23 18:07:00,
2017-11-23 13:22:00,39.6,19.0,29.98,WNW,294,5.0,9.0,44,0.00,,,0.00,weatherlink.com 1.10,2017-11-23 18:22:00,
2017-11-23 13:38:00,40.0,19.0,29.98,NW,319,4.0,9.0,43,0.00,,,0.00,weatherlink.com 1.10,2017-11-23 18:38:00,
2017-11-23 13:52:00,40.2,18.0,29.97,West,275,6.0,12.0,41,0.00,,,0.00,weatherlink.com 1.10,2017-11-23 18:52:00,
2017-11-23 14:37:00,41.0,19.0,29.97,NW,324,6.0,10.0,41,0.00,,,0.00,weatherlink.com 1.10,2017-11-23 19:37:00,
2017-11-23 14:52:00,41.0,19.0,29.97,NW,313,5.0,10.0,41,0.00,,,0.00,weatherlink.com 1.10,2017-11-23 19:52:00,
2017-11-23 15:37:00,39.5,17.0,29.98,NNW,340,5.0,10.0,41,0.00,,,0.00,weatherlink.com 1.10,2017-11-23 20:37:00,
2017-11-23 15:52:00,39.2,18.0,29.97,NNW,327,5.0,9.0,42,0.00,,,0.00,weatherlink.com 1.10,2017-11-23 20:52:00,
2017-11-23 16:37:00,38.5,19.0,29.97,NW,313,1.0,3.0,46,0.00,,,0.00,weatherlink.com 1.10,2017-11-23 21:37:00,
2017-11-23 17:07:00,37.9,20.0,29.97,NW,313,1.0,3.0,49,0.00,,,0.00,weatherlink.com 1.10,2017-11-23 22:07:00,
2017-11-23 17:22:00,37.5,19.0,29.98,NW,313,1.0,2.0,47,0.00,,,0.00,weatherlink.com 1.10,2017-11-23 22:22:00,
2017-11-23 17:38:00,37.4,19.0,29.99,NW,313,0.0,3.0,48,0.00,,,0.00,weatherlink.com 1.10,2017-11-23 22:38:00,
2017-11-23 18:07:00,36.4,25.0,29.98,NNW,331,2.0,4.0,63,0.00,,,0.00,weatherlink.com 1.10,2017-11-23 23:07:00,
2017-11-23 18:22:00,36.8,20.0,29.98,NNW,327,2.0,4.0,51,0.00,,,0.00,weatherlink.com 1.10,2017-11-23 23:22:00,
2017-11-23 18:38:00,36.6,21.0,29.98,NW,323,0.0,3.0,54,0.00,,,0.00,weatherlink.com 1.10,2017-11-23 23:38:00,
2017-11-23 19:07:00,35.6,21.0,29.98,NW,322,0.0,2.0,56,0.00,,,0.00,weatherlink.com 1.10,2017-11-24 00:07:00,
2017-11-23 19:22:00,34.7,23.0,29.98,NW,322,0.0,3.0,63,0.00,,,0.00,weatherlink.com 1.10,2017-11-24 00:22:00,
2017-11-23 19:37:00,34.6,21.0,29.99,NW,321,1.0,2.0,57,0.00,,,0.00,weatherlink.com 1.10,2017-11-24 00:37:00,
2017-11-23 20:52:00,33.3,20.0,29.99,NW,311,3.0,4.0,59,0.00,,,0.00,weatherlink.com 1.10,2017-11-24 01:52:00,
2017-11-23 21:07:00,33.1,20.0,29.98,NW,320,4.0,6.0,58,0.00,,,0.00,weatherlink.com 1.10,2017-11-24 02:07:00,
2017-11-23 21:38:00,32.6,20.0,29.98,WNW,288,3.0,4.0,59,0.00,,,0.00,weatherlink.com 1.10,2017-11-24 02:38:00,
2017-11-23 21:52:00,32.4,19.0,29.97,West,270,2.0,3.0,59,0.00,,,0.00,weatherlink.com 1.10,2017-11-24 02:52:00,
2017-11-23 22:23:00,31.3,20.0,29.97,West,271,2.0,3.0,64,0.00,,,0.00,weatherlink.com 1.10,2017-11-24 03:23:00,
2017-11-23 22:38:00,30.8,21.0,29.98,West,271,3.0,3.0,66,0.00,,,0.00,weatherlink.com 1.10,2017-11-24 03:38:00,
2017-11-23 22:53:00,30.4,21.0,29.97,WSW,252,3.0,4.0,67,0.00,,,0.00,weatherlink.com 1.10,2017-11-24 03:53:00,
2017-11-23 23:08:00,30.1,21.0,29.98,West,266,3.0,4.0,69,0.00,,,0.00,weatherlink.com 1.10,2017-11-24 04:08:00,
2017-11-23 23:23:00,30.9,21.0,29.98,WSW,246,1.0,4.0,66,0.00,,,0.00,weatherlink.com 1.10,2017-11-24 04:23:00,
2017-11-23 23:38:00,31.1,21.0,29.99,WSW,240,2.0,3.0,65,0.00,,,0.00,weatherlink.com 1.10,2017-11-24 04:38:00,